Lid_Strength_Index
10 10 10 10 10 10 10 11 10 10 10 10 10 10 10 10 10 10 10 10 9 9 9 8 8 7 6 6 6 5 6 5 7 6 5 4 5 6 7 8 7 7 6
10 10 11 11 11 11 11 11 11 11 11 11 11 11 11 11 11 11 11 11 11 10 10 9 9 8 8 7 7 7 7 7 7 8 7 6 6 5 5 6 7 7 7
11 11 11 12 12 12 12 12 11 12 12 12 12 12 12 12 12 11 11 11 11 11 11 10 10 10 10 10 10 9 9 8 7 8 8 7 6 6 6 9 8 8 9
12 12 12 12 12 12 12 12 13 13 13 13 13 13 13 12 12 12 11 12 12 12 11 11 11 11 11 11 11 11 10 10 9 9 9 8 7 7 10 9 8 9 9
13 13 13 12 13 13 13 14 14 15 14 14 14 14 14 13 12 12 13 13 13 13 12 12 12 12 11 10 10 11 11 10 10 10 10 9 9 8 8 7 9 8 8
13 13 13 14 14 15 15 16 16 15 16 15 15 15 15 13 12 11 11 13 13 14 14 13 12 12 11 9 9 9 9 10 11 10 10 10 10 9 8 8 8 9 10
14 14 15 15 16 16 16 16 16 16 16 16 16 16 16 15 12 12 11 13 13 14 13 13 13 11 11 11 10 9 9 9 8 9 10 9 10 9 9 9 9 9 9
15 15 16 16 17 17 17 17 17 17 17 17 16 17 16 15 13 12 12 13 13 13 12 11 11 11 11 11 11 11 10 10 9 9 9 8 8 7 8 8 9 9 8
16 17 17 17 19 18 20 18 18 17 17 18 17 18 18 16 14 12 12 13 13 12 11 11 11 11 10 9 10 11 11 10 8 7 7 6 6 5 6 8 9 10 10
17 17 18 18 21 21 19 20 19 20 18 17 17 17 18 18 13 11 11 12 12 12 11 11 11 10 10 9 10 10 11 10 9 8 8 7 6 7 6 7 8 10 11
18 19 20 20 21 21 22 21 21 20 19 19 18 17 18 16 14 10 10 11 11 11 12 12 11 10 9 8 8 10 9 8 8 8 7 7 8 9 11 11 11 10 11
20 21 23 25 23 21 26 25 23 23 21 20 19 17 16 15 11 10 10 9 9 11 11 11 10 9 9 8 8 6 6 7 8 9 10 11 11 11 11 12 13 13 13
27 28 28 26 24 23 26 24 23 24 21 19 18 17 15 14 13 11 10 9 9 10 10 9 8 8 7 7 6 6 7 7 11 12 11 11 11 10 10 11 11 12 13
29 27 26 26 25 25 22 21 24 23 20 19 17 16 15 14 14 13 11 11 10 9 9 10 9 7 6 6 7 7 7 7 8 11 11 11 10 10 11 11 12 12 13
28 26 25 24 26 23 21 21 19 19 18 17 15 15 15 15 14 10 10 11 8 8 10 12 10 9 8 8 8 8 8 8 8 9 10 10 10 10 11 11 11 12 14
26 24 24 24 23 21 21 20 16 15 13 13 12 12 12 10 10 10 10 9 7 7 11 12 11 10 10 10 10 10 10 10 10 9 8 9 10 10 11 11 12 13 15
29 26 25 23 24 24 23 22 21 18 15 14 12 11 11 11 11 10 10 8 8 9 14 13 12 12 12 11 12 12 13 13 11 11 11 12 11 10 12 12 12 14 14
31 26 28 27 26 26 25 23 22 21 20 18 14 12 12 12 11 11 11 9 15 14 17 16 15 14 14 14 14 13 14 14 14 14 14 14 14 13 14 15 15 14 17
29 28 28 27 27 25 23 21 19 19 18 18 22 16 17 13 12 13 13 16 18 18 19 17 16 16 16 15 15 15 16 16 16 16 16 16 16 17 18 17 17 17 17
31 28 27 28 27 25 21 20 20 19 16 19 23 22 20 21 23 23 20 20 20 19 19 21 20 18 19 19 18 17 17 18 18 18 18 18 18 20 19 21 21 22 23
30 29 26 27 26 23 23 21 20 17 16 22 22 21 12 23 24 23 23 21 21 20 20 20 20 20 21 21 22 21 22 23 24 24 23 23 23 24 25 23 25 25 26
30 29 28 28 25 23 23 23 21 19 20 23 22 21 14 22 23 23 21 22 21 21 20 21 21 22 22 23 24 23 24 29 29 29 28 27 28 28 27 27 27 26 26
28 28 28 27 25 24 24 24 24 24 24 24 24 23 24 25 24 24 21 21 21 20 21 21 22 22 22 24 23 24 28 29 29 32 32 31 31 31 31 30 30 29 29
29 28 27 27 26 26 26 26 25 24 25 26 26 26 24 25 25 24 21 21 20 20 20 21 22 23 23 24 26 27 29 30 33 33 34 33 32 32 31 32 30 30 28
29 28 28 27 28 27 27 27 26 27 26 25 26 25 24 24 22 21 21 21 20 21 21 21 22 22 23 24 26 27 28 25 31 32 36 33 33 33 34 33 32 30 29
29 29 29 28 28 28 28 28 28 27 27 26 25 22 21 21 20 19 20 20 21 21 21 22 22 22 23 24 25 24 24 22 26 27 32 32 32 32 33 32 32 31 29